CW4167 Holbaek DK current weather conditions

sailwx.info

Wind from 149 at 5 knots gusting 10

Air temperature 4.4° C
Dewpoint 3.9° C

Last reported at 2019-Dec-12 17:57 UTC.
Time now 2019-Dec-12 18:53 UTC

Location: N 55°39' E 011°49'.
View on Google Maps.

See reports from other nearby stations

  
Tides and Currents Weather Stations Pressure Air Temp Water Temp Dewpoint Dewpoint Depression Visibility Wind Speed Wind Dir Waves Ship Positions
date/time (UTC)wind fromknots sea level pressurealtimeterstation pressurevisibilityair tempwater tempwave heightnotes
2019-Dec-12 17:57 149 5 gusting 10 4.4
2019-Dec-12 17:52 147 4 gusting 7 4.4
2019-Dec-12 17:37 154 5 gusting 10 4.4
2019-Dec-12 17:32 151 5 gusting 10 4.4
2019-Dec-12 17:27 152 5 gusting 10 4.4
2019-Dec-12 17:22 149 5 gusting 10 4.4
2019-Dec-12 17:07 147 6 gusting 8 4.4
2019-Dec-12 17:02 147 6 gusting 10 4.4
2019-Dec-12 16:42 146 4 gusting 8 4.4
2019-Dec-12 16:37 152 5 gusting 10 4.4
2019-Dec-12 16:27 159 5 gusting 10 4.4
2019-Dec-12 16:22 156 6 gusting 10 4.4
2019-Dec-12 16:17 151 4 gusting 10 4.4
2019-Dec-12 16:12 160 6 gusting 10 4.4
2019-Dec-12 16:02 155 5 gusting 8 4.4
2019-Dec-12 15:57 159 4 gusting 10 4.4
2019-Dec-12 15:52 179 2 gusting 10 4.4
2019-Dec-12 15:47 153 4 gusting 10 4.4
2019-Dec-12 15:42 171 4 gusting 8 4.4
2019-Dec-12 15:37 176 4 gusting 8 4.4
2019-Dec-12 15:27 144 5 gusting 7 4.4
2019-Dec-12 15:17 148 5 gusting 11 4.4
2019-Dec-12 15:07 150 6 gusting 11 4.4
2019-Dec-12 15:02 164 5 gusting 10 4.4
2019-Dec-12 14:47 146 6 gusting 12 4.4
2019-Dec-12 14:42 142 6 gusting 12 4.4
2019-Dec-12 14:37 147 5 gusting 12 4.4
2019-Dec-12 14:32 140 5 gusting 8 4.4
2019-Dec-12 14:27 141 5 gusting 10 4.4
2019-Dec-12 14:22 140 5 gusting 8 4.4
2019-Dec-12 14:17 142 5 gusting 11 4.4
2019-Dec-12 14:13 145 6 gusting 11 4.4
2019-Dec-12 14:07 140 5 gusting 13 4.4
2019-Dec-12 14:02 142 6 gusting 10 4.4
2019-Dec-12 13:57 141 4 gusting 10 4.4
2019-Dec-12 13:52 151 6 gusting 10 4.4
2019-Dec-12 13:42 148 5 gusting 10 4.4
2019-Dec-12 13:37 149 6 gusting 11 4.4
2019-Dec-12 13:32 139 5 gusting 11 4.4
2019-Dec-12 13:27 142 5 gusting 10 4.4
2019-Dec-12 13:17 159 2 gusting 8 4.4
2019-Dec-12 13:12 155 6 gusting 10 4.4
2019-Dec-12 13:07 149 5 gusting 10 4.4
2019-Dec-12 13:02 159 6 gusting 11 4.4
2019-Dec-12 12:57 161 6 gusting 11 4.4
2019-Dec-12 12:52 164 3 gusting 10 4.4
2019-Dec-12 12:47 156 5 gusting 11 4.4
2019-Dec-12 12:42 172 5 gusting 10 4.4
2019-Dec-12 12:37 178 2 gusting 10 4.4
2019-Dec-12 12:22 164 5 gusting 11 4.4
2019-Dec-12 12:17 172 3 gusting 8 5.0
2019-Dec-12 12:12 185 1 gusting 6 4.4
2019-Dec-12 11:57 173 2 gusting 5 4.4
2019-Dec-12 11:52 172 3 gusting 7 4.4
2019-Dec-12 11:47 174 1 gusting 6 4.4
2019-Dec-12 11:37 177 0 gusting 6 4.4
2019-Dec-12 11:32 187 2 gusting 6 4.4
2019-Dec-12 11:12 179 1 gusting 6 4.4
2019-Dec-12 11:07 182 2 gusting 5 5.0
2019-Dec-12 11:02 187 2 gusting 6 5.0
2019-Dec-12 10:52 203 2 gusting 10 5.0
2019-Dec-12 10:47 198 1 gusting 6 5.0
2019-Dec-12 10:37 162 0 gusting 2 5.0
2019-Dec-12 10:32 167 1 gusting 2 4.4
2019-Dec-12 10:27 171 0 gusting 2 4.4
2019-Dec-12 10:22 191 1 gusting 5 4.4
2019-Dec-12 10:17 186 4.4
2019-Dec-12 10:12 181 1 gusting 5 4.4
2019-Dec-12 10:07 173 1 gusting 5 4.4
2019-Dec-12 10:02 173 1 gusting 2 4.4
2019-Dec-12 09:57 149 2 gusting 5 4.4
2019-Dec-12 09:52 160 4.4
2019-Dec-12 09:47 168 4.4
2019-Dec-12 09:37 170 1 gusting 2 4.4
2019-Dec-12 09:32 154 4.4
2019-Dec-12 09:22 154 0 gusting 2 4.4
2019-Dec-12 09:17 164 1 gusting 4 4.4
2019-Dec-12 09:12 170 0 gusting 2 4.4
2019-Dec-12 09:08 152 0 gusting 4 4.4
2019-Dec-12 08:57 170 1 gusting 4 3.9
2019-Dec-12 08:42 153 1 gusting 5 3.9
2019-Dec-12 08:37 156 0 gusting 2 3.9
2019-Dec-12 08:32 165 0 gusting 4 3.9
2019-Dec-12 08:27 159 1 gusting 4 3.9
2019-Dec-12 08:17 157 1 gusting 4 3.9
2019-Dec-12 08:12 159 1 gusting 4 3.9
2019-Dec-12 08:08 165 0 gusting 2 3.9
2019-Dec-12 08:02 155 1 gusting 2 3.9
2019-Dec-12 07:57 166 0 gusting 4 3.9
2019-Dec-12 07:47 144 0 gusting 4 4.4
2019-Dec-12 07:37 131 1 gusting 4 4.4
2019-Dec-12 07:32 131 1 gusting 4 4.4
2019-Dec-12 07:28 138 4.4
2019-Dec-12 07:22 142 0 gusting 2 4.4
2019-Dec-12 07:07 166 1 gusting 5 4.4
2019-Dec-12 07:02 158 0 gusting 2 4.4
2019-Dec-12 06:57 149 0 gusting 4 4.4
2019-Dec-12 06:47 158 0 gusting 2 4.4
2019-Dec-12 06:42 158 1 gusting 4 4.4
2019-Dec-12 06:37 149 2 gusting 2 4.4
2019-Dec-12 06:32 144 1 gusting 2 4.4
2019-Dec-12 06:22 159 2 gusting 5 4.4
2019-Dec-12 06:17 162 2 gusting 4 4.4
2019-Dec-12 06:12 165 1 gusting 4 4.4
2019-Dec-12 06:07 164 2 gusting 5 4.4
2019-Dec-12 06:02 168 4.4
2019-Dec-12 05:57 166 2 gusting 5 4.4
2019-Dec-12 05:47 147 2 gusting 6 4.4
2019-Dec-12 05:42 155 2 gusting 4 4.4
2019-Dec-12 05:37 157 1 gusting 4 4.4
2019-Dec-12 05:32 160 2 gusting 4 4.4
2019-Dec-12 05:27 167 0 gusting 2 4.4
2019-Dec-12 05:22 155 2 gusting 6 4.4
2019-Dec-12 05:17 172 0 gusting 2 4.4
2019-Dec-12 05:08 165 1 gusting 4 4.4
2019-Dec-12 05:02 160 0 gusting 2 4.4
2019-Dec-12 04:57 179 0 gusting 2 4.4
2019-Dec-12 04:47 153 1 gusting 2 4.4
2019-Dec-12 04:42 157 1 gusting 2 4.4
2019-Dec-12 04:32 150 2 gusting 4 4.4
2019-Dec-12 04:27 176 1 gusting 4 4.4
2019-Dec-12 04:17 148 4.4
2019-Dec-12 04:07 159 1 gusting 6 4.4
2019-Dec-12 04:02 153 1 gusting 2 4.4
2019-Dec-12 03:57 151 1 gusting 4 4.4
2019-Dec-12 03:52 156 1 gusting 2 4.4
2019-Dec-12 03:47 148 2 gusting 5 4.4
2019-Dec-12 03:42 160 1 gusting 4 4.4
2019-Dec-12 03:37 156 1 gusting 4 4.4
2019-Dec-12 03:32 167 0 gusting 2 4.4
2019-Dec-12 03:22 144 4.4
2019-Dec-12 03:17 145 1 gusting 2 4.4
2019-Dec-12 03:07 153 4.4
2019-Dec-12 03:02 152 1 gusting 4 4.4
2019-Dec-12 02:52 148 1 gusting 2 4.4
2019-Dec-12 02:47 144 0 gusting 2 4.4
2019-Dec-12 02:42 158 1 gusting 2 4.4
2019-Dec-12 02:37 133 1 gusting 2 4.4
2019-Dec-12 02:32 136 1 gusting 2 4.4
2019-Dec-12 02:22 135 1 gusting 2 4.4
2019-Dec-12 02:17 132 0 gusting 2 4.4
2019-Dec-12 02:12 144 0 gusting 2 4.4
2019-Dec-12 02:07 134 0 gusting 2 4.4
2019-Dec-12 02:02 137 1 gusting 2 4.4
2019-Dec-12 01:57 130 1 gusting 2 4.4
2019-Dec-12 01:52 140 0 gusting 2 4.4
2019-Dec-12 01:47 130 1 gusting 4 4.4
2019-Dec-12 01:37 153 4.4
2019-Dec-12 01:32 140 4.4
2019-Dec-12 01:27 149 4.4
2019-Dec-12 01:07 146 1 gusting 2 5.0
2019-Dec-12 00:52 141 1 gusting 2 5.0
2019-Dec-12 00:48 147 1 gusting 2 5.0
2019-Dec-12 00:42 140 0 gusting 2 5.0
2019-Dec-12 00:27 155 1 gusting 2 5.0
2019-Dec-12 00:22 141 1 gusting 2 5.0
2019-Dec-12 00:17 131 1 gusting 2 5.0
2019-Dec-12 00:12 142 1 gusting 2 5.0
2019-Dec-12 00:07 148 1 gusting 2 5.0
2019-Dec-12 00:03 137 1 gusting 2 5.0
2019-Dec-11 23:57 151 1 gusting 2 5.0
2019-Dec-11 23:52 152 1 gusting 2 5.0
2019-Dec-11 23:47 155 1 gusting 2 5.0
2019-Dec-11 23:42 163 0 gusting 2 5.0
2019-Dec-11 23:37 169 5.0
2019-Dec-11 23:27 159 5.0
2019-Dec-11 23:22 167 5.0
2019-Dec-11 23:17 178 1 gusting 2 5.0
2019-Dec-11 23:12 178 0 gusting 1 5.0
2019-Dec-11 23:07 183 0 gusting 2 5.0
2019-Dec-11 23:02 174 0 gusting 2 5.0
2019-Dec-11 22:57 178 5.0
2019-Dec-11 22:42 156 0 gusting 2 5.0
2019-Dec-11 22:37 170 2 gusting 4 5.0
2019-Dec-11 22:32 154 1 gusting 4 5.0
2019-Dec-11 22:22 155 2 gusting 4 5.0
2019-Dec-11 22:17 165 1 gusting 6 5.0
2019-Dec-11 22:07 151 1 gusting 5 5.0
2019-Dec-11 22:02 155 1 gusting 2 5.0
2019-Dec-11 21:57 155 1 gusting 4 5.0
2019-Dec-11 21:52 155 1 gusting 4 5.0
2019-Dec-11 21:47 154 1 gusting 5 5.0
2019-Dec-11 21:42 164 2 gusting 4 5.0
2019-Dec-11 21:32 169 2 gusting 5 5.0
2019-Dec-11 21:27 166 1 gusting 6 5.0
2019-Dec-11 21:22 171 2 gusting 6 5.0
2019-Dec-11 21:17 169 2 gusting 6 5.0
2019-Dec-11 21:12 171 2 gusting 7 5.0
2019-Dec-11 21:07 161 2 gusting 6 5.0
2019-Dec-11 21:02 157 2 gusting 5 5.0
2019-Dec-11 20:57 161 1 gusting 4 5.0
2019-Dec-11 20:47 153 2 gusting 5 5.0
2019-Dec-11 20:42 156 1 gusting 4 5.0
2019-Dec-11 20:32 149 2 gusting 5 5.0
2019-Dec-11 20:27 159 1 gusting 5 5.0
2019-Dec-11 20:22 148 1 gusting 5 5.0
2019-Dec-11 20:17 158 1 gusting 4 5.0
2019-Dec-11 20:12 160 1 gusting 5 5.0
2019-Dec-11 20:07 155 1 gusting 4 5.0
2019-Dec-11 20:02 145 0 gusting 2 5.0
2019-Dec-11 19:57 145 1 gusting 4 5.0
2019-Dec-11 19:52 135 1 gusting 5 5.0
2019-Dec-11 19:47 147 2 gusting 6 5.0
2019-Dec-11 19:42 147 2 gusting 6 5.0
2019-Dec-11 19:32 151 2 gusting 5 5.0
2019-Dec-11 19:27 151 1 gusting 2 5.0
2019-Dec-11 19:18 142 1 gusting 4 5.0
2019-Dec-11 19:12 145 1 gusting 7 5.0
2019-Dec-11 19:07 143 2 gusting 7 5.0
2019-Dec-11 19:02 142 1 gusting 2 5.0
2019-Dec-11 18:52 139 2 gusting 6 5.0
2019-Dec-11 18:47 147 2 gusting 5 5.0
2019-Dec-11 18:32 147 3 gusting 5 5.0
2019-Dec-11 18:27 150 2 gusting 7 5.0
2019-Dec-11 18:22 150 1 gusting 6 5.0
2019-Dec-11 18:17 158 3 gusting 6 5.0
2019-Dec-11 18:12 176 2 gusting 6 5.0
2019-Dec-11 18:07 152 4 gusting 6 5.0
2019-Dec-11 18:02 146 2 gusting 4 5.0
2019-Dec-11 17:57 155 2 gusting 6 5.0
2019-Dec-11 17:47 147 5 gusting 8 5.0
2019-Dec-11 17:42 145 4 gusting 7 5.0
2019-Dec-11 17:37 145 3 gusting 5 5.0
2019-Dec-11 17:32 149 5 gusting 7 5.0
2019-Dec-11 17:27 151 5 gusting 7 5.0
2019-Dec-11 17:22 147 4 gusting 7 5.0
2019-Dec-11 17:17 146 5 gusting 10 5.0
2019-Dec-11 17:12 151 4 gusting 7 5.0
2019-Dec-11 17:07 151 5 gusting 8 5.0
2019-Dec-11 17:02 149 5 gusting 10 5.0
2019-Dec-11 16:52 151 4 gusting 7 5.0
2019-Dec-11 16:47 144 4 gusting 7 5.6
2019-Dec-11 16:42 154 6 gusting 10 5.6
2019-Dec-11 16:27 150 5 gusting 10 5.6
2019-Dec-11 16:17 159 5 gusting 10 5.6
2019-Dec-11 16:12 151 5 gusting 7 5.6
2019-Dec-11 16:07 149 4 gusting 8 5.6
2019-Dec-11 16:02 151 5 gusting 10 5.6
2019-Dec-11 15:58 159 4 gusting 10 5.6
2019-Dec-11 15:52 156 5 gusting 10 5.6
2019-Dec-11 15:47 150 5 gusting 8 5.6
2019-Dec-11 15:42 153 6 gusting 10 5.6
2019-Dec-11 15:37 159 4 gusting 10 5.6
2019-Dec-11 15:27 151 4 gusting 7 5.6
2019-Dec-11 15:22 147 3 gusting 8 5.6
2019-Dec-11 15:17 159 5 gusting 8 5.6
2019-Dec-11 15:07 143 5 gusting 8 5.6
2019-Dec-11 15:02 151 4 gusting 7 5.6
2019-Dec-11 14:32 148 3 gusting 6 5.6
2019-Dec-11 14:27 155 4 gusting 6 5.6
2019-Dec-11 14:22 156 3 gusting 7 5.6
2019-Dec-11 14:17 155 2 gusting 7 5.6
2019-Dec-11 14:07 159 2 gusting 7 5.6
2019-Dec-11 14:02 165 4 gusting 6 5.6
2019-Dec-11 13:58 149 3 gusting 6 5.6
2019-Dec-11 13:47 161 2 gusting 7 5.6
2019-Dec-11 13:42 160 4 gusting 7 5.6
2019-Dec-11 13:37 159 4 gusting 10 5.6
2019-Dec-11 13:32 161 4 gusting 7 5.6
2019-Dec-11 13:22 164 4 gusting 6 5.6
2019-Dec-11 13:17 158 5 gusting 10 5.6
2019-Dec-11 13:12 154 5 gusting 8 5.6
2019-Dec-11 13:07 153 3 gusting 8 5.6
2019-Dec-11 13:02 156 4 gusting 7 5.6
2019-Dec-11 12:52 173 3 gusting 8 5.6
2019-Dec-11 12:42 159 4 gusting 10 5.6
2019-Dec-11 12:37 164 4 gusting 10 5.6
2019-Dec-11 12:32 167 5 gusting 10 5.6
2019-Dec-11 12:22 167 2 gusting 6 5.6
2019-Dec-11 12:17 166 4 gusting 8 5.6
2019-Dec-11 12:12 172 3 gusting 8 5.6
2019-Dec-11 12:02 160 4 gusting 10 5.6
2019-Dec-11 11:57 180 4 gusting 7 5.6
2019-Dec-11 11:47 177 5 gusting 8 5.6
2019-Dec-11 11:42 172 5 gusting 10 5.6
2019-Dec-11 11:37 162 5 gusting 10 5.6
2019-Dec-11 11:32 170 5 gusting 10 5.6
2019-Dec-11 11:22 183 6 gusting 10 5.6
2019-Dec-11 11:17 172 6 gusting 10 5.6
2019-Dec-11 11:12 175 4 gusting 10 5.6
2019-Dec-11 11:07 171 4 gusting 8 5.6
2019-Dec-11 11:02 174 5 gusting 10 5.6
2019-Dec-11 10:57 173 4 gusting 10 5.6
2019-Dec-11 10:47 178 4 gusting 10 5.6
2019-Dec-11 10:42 179 6 gusting 11 5.6
2019-Dec-11 10:32 177 6 gusting 10 5.6
2019-Dec-11 10:27 181 6 gusting 14 5.6
2019-Dec-11 10:12 178 6 gusting 11 5.0
2019-Dec-11 10:07 175 4 gusting 10 5.0
2019-Dec-11 10:02 184 7 gusting 11 5.0
2019-Dec-11 09:57 170 6 gusting 11 5.0
2019-Dec-11 09:47 174 6 gusting 13 5.0
2019-Dec-11 09:42 180 6 gusting 12 5.0
2019-Dec-11 09:17 189 7 gusting 13 5.0
2019-Dec-11 08:57 176 6 gusting 13 5.0
2019-Dec-11 08:52 172 6 gusting 12 5.0
2019-Dec-11 08:47 174 7 gusting 13 5.0
2019-Dec-11 08:42 178 6 gusting 13 5.0
2019-Dec-11 08:32 179 6 gusting 13 5.0
2019-Dec-11 08:27 165 7 gusting 12 5.0
2019-Dec-11 08:22 162 6 gusting 12 5.0
2019-Dec-11 08:17 175 7 gusting 12 5.0
2019-Dec-11 08:12 166 5 gusting 12 4.4
2019-Dec-11 08:07 175 6 gusting 13 4.4
2019-Dec-11 08:02 192 6 gusting 12 4.4
2019-Dec-11 07:57 164 6 gusting 12 4.4
2019-Dec-11 07:52 165 6 gusting 11 4.4
2019-Dec-11 07:42 178 6 gusting 11 4.4
2019-Dec-11 07:32 170 7 gusting 13 4.4
2019-Dec-11 07:28 168 7 gusting 13 4.4
2019-Dec-11 07:22 173 7 gusting 13 4.4
2019-Dec-11 07:18 159 6 gusting 17 4.4
2019-Dec-11 07:02 170 10 gusting 17 4.4
2019-Dec-11 06:57 166 8 gusting 18 3.9
2019-Dec-11 06:53 172 8 gusting 17 3.9
2019-Dec-11 06:47 159 10 gusting 17 3.9
2019-Dec-11 06:37 168 9 gusting 14 3.9
2019-Dec-11 06:32 170 8 gusting 13 3.9
2019-Dec-11 06:22 172 7 gusting 15 3.9
2019-Dec-11 06:12 173 8 gusting 18 3.9
2019-Dec-11 06:02 165 12 gusting 18 3.9
2019-Dec-11 05:52 166 12 gusting 18 4.4
2019-Dec-11 05:42 166 7 gusting 15 3.9
2019-Dec-11 05:37 183 10 gusting 15 3.9
2019-Dec-11 05:27 169 10 gusting 17 3.9
2019-Dec-11 05:22 175 9 gusting 18 3.9
2019-Dec-11 04:57 178 10 gusting 19 3.9
2019-Dec-11 04:42 185 11 gusting 21 3.9
2019-Dec-11 04:37 177 9 gusting 17 3.9
2019-Dec-11 04:32 169 12 gusting 21 3.3
2019-Dec-11 04:27 175 10 gusting 19 3.3
2019-Dec-11 04:22 167 12 gusting 19 3.3
2019-Dec-11 04:17 171 13 gusting 19 3.3
2019-Dec-11 04:12 166 12 gusting 18 3.3
2019-Dec-11 04:07 167 10 gusting 19 3.3
2019-Dec-11 04:02 161 10 gusting 19 3.3
2019-Dec-11 03:52 166 13 gusting 24 3.3
2019-Dec-11 03:47 165 11 gusting 22 3.3
2019-Dec-11 03:37 166 12 gusting 24 3.3
2019-Dec-11 03:32 163 14 gusting 20 3.3
2019-Dec-11 03:27 161 12 gusting 19 3.3
2019-Dec-11 03:17 163 13 gusting 21 3.3
2019-Dec-11 03:12 174 14 gusting 25 3.3
2019-Dec-11 03:02 165 14 gusting 26 3.3
2019-Dec-11 02:52 163 13 gusting 22 3.9
2019-Dec-11 02:47 163 13 gusting 26 3.9
2019-Dec-11 02:37 160 13 gusting 24 3.9
2019-Dec-11 02:32 163 13 gusting 22 3.9
2019-Dec-11 02:27 168 13 gusting 24 3.9
2019-Dec-11 02:22 161 13 gusting 19 3.9
2019-Dec-11 02:17 150 14 gusting 26 3.9
2019-Dec-11 02:12 157 13 gusting 26 3.9
2019-Dec-11 02:07 160 14 gusting 24 3.9
2019-Dec-11 02:02 162 14 gusting 24 3.9
2019-Dec-11 01:57 177 17 gusting 27 3.9
2019-Dec-11 01:52 158 12 gusting 24 3.9
2019-Dec-11 01:47 172 14 gusting 27 3.9
2019-Dec-11 01:42 166 12 gusting 26 3.9
2019-Dec-11 01:27 167 15 gusting 25 3.9
2019-Dec-11 01:12 158 15 gusting 24 3.9
2019-Dec-11 01:07 170 13 gusting 21 3.9
2019-Dec-11 01:02 154 12 gusting 25 3.9
2019-Dec-11 00:57 162 13 gusting 25 3.9
2019-Dec-11 00:48 157 13 gusting 24 3.9
2019-Dec-11 00:42 162 13 gusting 28 3.9
2019-Dec-11 00:37 159 17 gusting 27 3.9
2019-Dec-11 00:32 159 15 gusting 27 3.9
2019-Dec-11 00:27 158 13 gusting 26 3.9
2019-Dec-11 00:07 151 14 gusting 26 3.9
2019-Dec-11 00:02 160 14 gusting 26 3.9
2019-Dec-10 23:52 148 13 gusting 22 3.9
2019-Dec-10 23:32 146 13 gusting 24 4.4
2019-Dec-10 23:02 150 12 gusting 19 3.9
2019-Dec-10 22:57 151 13 gusting 22 3.9
2019-Dec-10 22:52 153 12 gusting 22 3.9
2019-Dec-10 22:37 145 11 gusting 20 3.9
2019-Dec-10 22:32 148 14 gusting 25 3.9
2019-Dec-10 22:27 141 13 gusting 24 3.9
2019-Dec-10 22:22 144 17 gusting 31 3.9
2019-Dec-10 22:17 148 13 gusting 26 3.9
2019-Dec-10 22:12 149 13 gusting 25 3.9
2019-Dec-10 22:07 147 13 gusting 19 3.9
2019-Dec-10 22:02 150 14 gusting 22 3.9
2019-Dec-10 21:57 158 13 gusting 26 3.9
2019-Dec-10 21:47 139 13 gusting 20 3.9
2019-Dec-10 21:37 143 13 gusting 21 3.9
2019-Dec-10 21:32 150 13 gusting 18 3.9
2019-Dec-10 21:22 155 13 gusting 25 3.9
2019-Dec-10 21:17 157 14 gusting 26 3.9
2019-Dec-10 21:12 151 12 gusting 22 3.9
2019-Dec-10 21:07 139 13 gusting 22 3.9
2019-Dec-10 21:02 158 15 gusting 27 3.9
2019-Dec-10 20:52 153 12 gusting 20 3.9
2019-Dec-10 20:42 151 16 gusting 31 3.9
2019-Dec-10 20:37 148 13 gusting 24 3.9
2019-Dec-10 20:32 154 13 gusting 22 3.9
2019-Dec-10 20:22 155 11 gusting 28 3.9
2019-Dec-10 20:17 143 13 gusting 22 3.9
2019-Dec-10 20:12 149 14 gusting 20 3.9
2019-Dec-10 20:07 151 13 gusting 21 3.9
2019-Dec-10 19:57 153 12 gusting 21 3.9
2019-Dec-10 19:52 146 14 gusting 25 3.9
2019-Dec-10 19:47 152 12 gusting 22 3.9
2019-Dec-10 19:42 147 13 gusting 22 3.9
2019-Dec-10 19:32 143 14 gusting 22 3.3
2019-Dec-10 19:27 141 12 gusting 20 3.3
2019-Dec-10 19:17 134 13 gusting 25 3.3
2019-Dec-10 19:12 136 12 gusting 19 3.3
2019-Dec-10 19:07 139 12 gusting 19 3.3
2019-Dec-10 19:02 145 13 gusting 19 3.3
2019-Dec-10 18:47 142 10 gusting 17 2.8
2019-Dec-10 18:43 137 11 gusting 17 2.8
2019-Dec-10 18:32 139 11 gusting 17 3.3
2019-Dec-10 18:27 139 11 gusting 17 3.3
2019-Dec-10 18:22 122 10 gusting 17 3.3
2019-Dec-10 18:17 144 11 gusting 17 3.3
2019-Dec-10 18:12 140 10 gusting 15 3.3
2019-Dec-10 18:07 139 11 gusting 15 3.3